AirNav   TITAN Aviation Fuels
 
 1738 users online  

42VA Virginia Beach Airport
Virginia Beach, Virginia, USA

GOING TO VIRGINIA BEACH?


FAA INFORMATION EFFECTIVE 22 APRIL 2021

Location

FAA Identifier: 42VA
Lat/Long: 36-40-44.0550N 076-01-57.9950W
36-40.734250N 076-01.966583W
36.6789042,-76.0327764
(estimated)
Elevation: 15 ft. / 5 m (estimated)
Variation: 10W (1990)
From city: 4 miles SE of VIRGINIA BEACH, VA
Time zone: UTC -4 (UTC -5 during Standard Time)
Zip code: 23457

Airport Operations

Airport use: Private use. Permission required prior to landing
Activation date: 04/1993
Control tower: no
ARTCC: WASHINGTON CENTER
FSS: LEESBURG FLIGHT SERVICE STATION
Attendance: UNATNDD
Wind indicator: yes
Segmented circle: no

Airport Communications

WX ASOS at NTU (9 nm N): PHONE DSN 433-3619 or 757-433-3619
WX AWOS-3 at CPK (14 nm W): 123.675 (757-204-4290)
WX ASOS at ORF (15 nm NW): PHONE 757-460-9348
WX AWOS-3 at ONX (17 nm S): 119.775 (252-453-8939)

Nearby radio navigation aids

VOR radial/distance  VOR name  Freq  Var
ORFr155/15.1NORFOLK VORTAC116.9007W
ECGr022/26.2ELIZABETH CITY VOR/DME112.5007W

 
NDB name  Hdg/Dist  Freq  Var  ID
INGLE142/14.332909WOR --- .-.
WOODVILLE037/28.025410WLLW .-.. .-.. .--

Airport Services

Runway Information

Runway 11/29

Dimensions: 4845 x 190 ft. / 1477 x 58 m
Surface: turf, in good condition
RUNWAY 11  RUNWAY 29
Latitude: 36-40.824167N36-40.644333N
Longitude: 076-02.449500W076-01.483667W
Elevation: 10.0 ft.9.0 ft.
Traffic pattern: leftleft

Airport Ownership and Management from official FAA records

Ownership: Privately-owned
Owner: VIRGINIA BEACH ARPT, LLC
4455 SOUTH BLVD
VIRGINIA BEACH, VA 23452
Phone 757-490-3157
Manager: GERALD YAGEN
4455 SOUTH BLVD
VIRGINIA BEACH, VA 23452
Phone 757-490-3157
EXTENSION 500.

Airport Operational Statistics

Aircraft based on the field: 54
Single engine airplanes: 50
Multi engine airplanes: 4
    

Additional Remarks

AWOS - PHONE 757-204-2683, FREQUENCY 119.925
FOR CD CTC WASHINGTON ARTCC AT 703-771-3587.

Instrument Procedures

There are no published instrument procedures at 42VA.

Some nearby airports with instrument procedures:

KNTU - Oceana Naval Air Station (Apollo Soucek Field) (9 nm N)
KCPK - Chesapeake Regional Airport (14 nm W)
KORF - Norfolk International Airport (15 nm NW)
KONX - Currituck County Regional Airport (17 nm S)
KNGU - Norfolk Naval Station (Chambers Field) (20 nm NW)
 
Loc | Ops | Rwys | IFR | FBO | Links
Com | Nav | Svcs | Stats | Notes
Area around 42VA (Virginia Beach Airport)
 
Road maps at: MapQuest Bing Google
 
Aerial photo
WARNING: Photo may not be current or correct
Aerial photo of 42VA (Virginia Beach Airport)
Photo by Jerry Yagen
Photo taken 10-Nov-2012
looking east.

Do you have a better or more recent aerial photo of Virginia Beach Airport that you would like to share? If so, please send us your photo.

 
Sectional chart

 
Airport distance calculator
Flying to Virginia Beach Airport? Find the distance to fly.

From to 42VA

Sunrise and sunset
Times for 18-May-2021
 Local
(UTC-4)
 Zulu
(UTC)
Morning civil twilight05:2609:26
Sunrise05:5509:55
Sunset20:0600:06
Evening civil twilight20:3500:35

Current date and time
Zulu (UTC)  18-May-2021 18:19:50
Local (UTC-4)  18-May-2021 14:19:50
 
METAR
KNFE 
5nm W 
181756Z AUTO 10SM CLR 23/07 A3038 RMK AO2 SLP289 T02330067 10239 20167 58006
KNTU 
8nm N 
181756Z 07008KT 10SM CLR 23/09 A3038 RMK AO2 SLP289 T02280094 10239 20189 58006
KCPK 
14nm W 
181755Z AUTO 09006KT 10SM SCT065 A3037 RMK AO2
KORF 
16nm NW 
181751Z 04009KT 10SM CLR 23/09 A3038 RMK AO2 SLP286 T02330094 10233 20183 58007
KONX 
17nm S 
181755Z AUTO 06006KT 10SM CLR 21/13 A3038 RMK AO2 T02090130 10255 20061
KNGU 
18nm NW 
181759Z 05007KT 10SM CLR 22/08 A3040 RMK AO2 SLP293 T02220078 10228 20178 58007 $
TAF
KNTU 
8nm N 
1815/1915 06008KT 9999 FEW050 SCT250 QNH3033INS FM182200 14009KT 9999 FEW050 SCT250 QNH3030INS FM190200 VRB06KT 9999 SKC QNH3030INS T25/1819Z T12/1909Z FN20008
KORF 
16nm NW 
181720Z 1818/1918 05009KT P6SM SKC FM182100 09009KT P6SM SKC FM190000 14006KT P6SM SKC FM190400 17004KT P6SM SKC FM191500 29004KT P6SM SKC
KNGU 
18nm NW 
1815/1915 08008KT 9999 SCT250 QNH3030INS WND 030V110 FM182300 13007KT 9999 FEW050 SCT250 QNH3032INS FM190700 VRB05KT 9999 FEW250 QNH3034INS T25/1820Z T12/1910Z FN20002
NOTAMs
Click for the latest NOTAMs
NOTAMs are issued by the DoD/FAA and will open in a separate window not controlled by AirNav.

 

 
 

Would you like to see your business listed on this page?

 If your business provides an interesting product or service to pilots, flight crews, aircraft, or users of the Virginia Beach Airport, you should consider listing it here.  To start the listing process, click on the button below
 
Add a business
 

Other Pages about Virginia Beach Airport

www.vbairport.com
Military Aviation Museum
www.fighterfactory.com
 
Update a link
 
Copyright © AirNav, LLC. All rights reserved. Privacy Policy  Contact